This demonstration page uses our WeatherBlox Daily Observations layout. Learn more.

Left ArrowRight Arrow

39.01783, -85.05884

Hourly Observations for November 7, 2020

Temp ( °F °C ) Dew Point ( °F °C ) Humidity (%) Winds ( mph kmh ) Pressure ( in mb ) Visibility ( mi km ) Precip ( " mm )
12:52 am 00:52 Mostly Clear 47 8.3 41 5 80 80 S 5 7 30.24 1024 9 14.48406 0 0
1:52 am 01:52 Clear 51 10.6 41 5 69 69 S 3 6 30.24 1024 10 16.0934 0 0
2:52 am 02:52 Clear 47 8.3 40 4.4 77 77 Calm 30.25 1024 10 16.0934 0 0
3:52 am 03:52 Clear 45 7.2 39 3.9 80 80 S 3 6 30.24 1024 10 16.0934 0 0
4:52 am 04:52 Clear 47 8.3 40 4.4 77 77 Calm 30.26 1025 10 16.0934 0 0
5:52 am 05:52 Clear 47 8.3 40 4.4 77 77 Calm 30.27 1025 10 16.0934 0 0
6:52 am 06:52 Clear 47 8.3 40 4.4 77 77 Calm 30.28 1025 10 16.0934 0 0
7:52 am 07:52 Mostly Sunny 49 9.4 41 5 74 74 Calm 30.29 1026 9 14.48406 0 0
8:52 am 08:52 Sunny 54 12.2 45 7.2 72 72 ESE 6 9 30.31 1026 10 16.0934 0 0
9:52 am 09:52 Sunny 59 15 46 7.8 62 62 SE 3 6 30.31 1026 9 14.48406 0 0
10:52 am 10:52 Sunny 65 18.3 44 6.7 47 47 S 6 9 30.31 1026 10 16.0934 0 0
11:52 am 11:52 Sunny 69 20.6 43 6.1 39 39 VRB 3 6 30.29 1026 10 16.0934 0 0
12:52 pm 12:52 Sunny 72 22.2 43 6.1 35 35 S 8 13 30.25 1025 10 16.0934 0 0
1:52 pm 13:52 Sunny 73 22.8 42 5.6 33 33 SSE 9 15 30.23 1024 10 16.0934 0 0
2:52 pm 14:52 Sunny 74 23.3 43 6.1 33 33 S 9 15 30.22 1023 10 16.0934 0 0
3:52 pm 15:52 Sunny 73 22.8 43 6.1 34 34 S 5 7 30.22 1023 10 16.0934 0 0
4:52 pm 16:52 Sunny 72 22.2 42 5.6 34 34 Calm 30.22 1023 10 16.0934 0 0
5:52 pm 17:52 Clear 66 18.9 42 5.6 42 42 Calm 30.22 1024 10 16.0934 0 0
6:52 pm 18:52 Clear 62 16.7 42 5.6 48 48 ESE 3 6 30.24 1024 10 16.0934 0 0
7:52 pm 19:52 Clear 60 15.6 42 5.6 52 52 SE 3 6 30.23 1024 10 16.0934 0 0
8:52 pm 20:52 Clear 60 15.6 42 5.6 52 52 Calm 30.23 1024 10 16.0934 0 0
9:52 pm 21:52 Clear 59 15 43 6.1 56 56 S 5 7 30.24 1024 10 16.0934 0 0
10:52 pm 22:52 Clear 57 13.9 43 6.1 60 60 Calm 30.23 1024 10 16.0934 0 0
11:52 pm 23:52 Clear 57 13.9 43 6.1 60 60 Calm 30.23 1024 10 16.0934 0 0

Powered by AerisWeather